Location: Bowden
(51.9167°N, 114.0333°W)
Time: 09:28:49
(UTC+00:00)

Envisat - Pass Details

Date: 05 December 2021
Orbit: 764 x 766 km, 98.2° (Epoch: 28 January)

Event Time Altitude Azimuth Distance (km) Brightness Sun altitude
Rises 11:34:12 0° 24° (NNE) 3,247 6.6 -34.7°
Reaches altitude 10° 11:37:01 10° 39° (NE) 2,315 5.9 -34.3°
Maximum altitude 11:40:58 22° 90° (E) 1,620 5.3 -33.7°
Drops below altitude 10° 11:44:54 10° 141° (SE) 2,301 5.8 -33.1°
Sets 11:47:41 0° 156° (SSE) 3,221 6.4 -32.6°
